Showing default

QIANFAN-43, 62244

Orbit data source: Space-Track

QIANFAN-43, 62244 is a Chinese payload satellite in LEO that was launched on Thu, 05 Dec 2024 UTC via a CHANG ZHENG 6A launch vehicle from the Taiyaun Space Center, China (TSC). Payload-class satellites include a variety of spacecraft equipped with specific instruments for various scientific and technological missions. These include communications satellites like Starlink; space stations such as the ISS; scientific satellites like the Hubble; Earth observation satellites from companies like Planet Labs, Umbra, and HawkEye 360; GPS; miniature CubeSats for education and research; and military/defense satellites.

Loading next visibility...
Identifier
62244, 2024-232H
Orbit
LEO
Country
Flag of CNCN / PRC
Related business
Manufacturer
SECM
Mission
Operational Commercial Communications
Bus & Motor
QIANFAN, Unknown motor
Mass
267 kg wet, ~267 kg dry
Launch date (UTC)
2024-12-05 (9 months ago)
Launch vehicle
CHANG ZHENG 6A
Launch site
Taiyaun Space Center, China (TSC)
Object type
Payload
Rocket body
Debris
Shape & HBR
Box + 1 Pan, 5.0 m
Radar Cross Section
13.200 m², Large (>1 m²)

Expand to show TLE details & history
Last TLE update: 10 hours ago

TLE from 10 hours ago
0 QIANFAN-43
1 62244U 24232H   25242.91934578  .00000070  00000-0  89426-4 0  9992
2 62244  88.9949  51.7348 0016969 132.2373 228.0221 13.50965695 53843
Epoch: 2025-08-30T22:03Z
TLE epoch observation values (Epoch: 2025-08-30T22:03:51.475Z)
Latitude
-0.00001°
Longitude
101.42359°
Altitude
1,080.126 km
Speed
7.308 km/s
True Right ascension
03h 26m 56s
True Declination
0° 00' 00"
Sunlit
Object was in daylight at epoch
Visualization orbit readout
Latitude
Unknown
Longitude
Unknown
Altitude
Unknown
Speed
Unknown
Apparent Right ascension
Unknown
Apparent Declination
Unknown
Sunlit
N/A
Visualization observer readout
Local Sidereal Time
23:50:46
Azimuth
Unknown
Elevation
Unknown
Doppler factor
Unknown
Orbital elements
Apogee altitude
1,078.39 km
Perigee altitude
1,053.127 km
Semi-major axis
7,443.896 km
Eccentricity
0.0017
Inclination
88.9949°
RAAN
51.7348°
Arg. of periapsis
132.2373°
True anomaly
227.87775°
Mean anomaly
228.0221°
Eccentric anomaly
227.9499°
Mean motion
3.37942 °/min
Orbital period
106.53 mins
BSTAR
0.000089426
Loading maneuver chart data...
Computing Atmospheric mass density...
Loading historical data...
Loading historical data...
Loading historical data...
Loading historical data...
Loading historical data...
Loading historical data...
Loading historical data...

Documentation

Showing up to 5 results
|